This is the latest recevied weather packets stored in our database for station/object OK2KJT-11. If no packets are shown the sender has not sent any weather packets the latest 10 day(s).
| Time | Temp. | Humidity | Pressure | Rain* | Wind** | Luminosity | Snow |
|---|---|---|---|---|---|---|---|
| 1788419360 | 15.56° C | 71% | 1021.7 hPa | - | - | - | - |
| 1788418761 | 15.56° C | 71% | 1021.7 hPa | - | - | - | - |
| 1788418161 | 15.56° C | 70% | 1021.6 hPa | - | - | - | - |
| 1788417562 | 15.56° C | 71% | 1021.7 hPa | - | - | - | - |
| 1788416962 | 15.56° C | 69% | 1021.6 hPa | - | - | - | - |
| 1788416362 | 16.11° C | 69% | 1021.7 hPa | - | - | - | - |
| 1788415761 | 17.22° C | 63% | 1021.7 hPa | - | - | - | - |
| 1788415160 | 16.11° C | 65% | 1021.6 hPa | - | - | - | - |
| 1788414559 | 16.11° C | 66% | 1021.5 hPa | - | - | - | - |
| 1788413960 | 16.67° C | 65% | 1021.5 hPa | - | - | - | - |
| 1788413359 | 15.56° C | 66% | 1021.5 hPa | - | - | - | - |
| 1788412759 | 14.44° C | 70% | 1021.5 hPa | - | - | - | - |
| 1788412159 | 14.44° C | 69% | 1021.6 hPa | - | - | - | - |
| 1788411560 | 14.44° C | 70% | 1021.4 hPa | - | - | - | - |
| 1788410960 | 14.44° C | 70% | 1021.3 hPa | - | - | - | - |
| 1788410360 | 13.89° C | 71% | 1021.3 hPa | - | - | - | - |
| 1788409760 | 13.89° C | 71% | 1021.4 hPa | - | - | - | - |
| 1788409161 | 13.89° C | 71% | 1021.2 hPa | - | - | - | - |
| 1788408561 | 13.33° C | 72% | 1021.1 hPa | - | - | - | - |
| 1788407961 | 12.78° C | 73% | 1021.1 hPa | - | - | - | - |
| 1788407361 | 13.33° C | 71% | 1021.1 hPa | - | - | - | - |
| 1788406762 | 13.89° C | 69% | 1021 hPa | - | - | - | - |
| 1788406162 | 13.89° C | 70% | 1021.1 hPa | - | - | - | - |
| 1788405562 | 13.89° C | 70% | 1021.1 hPa | - | - | - | - |
| 1788404962 | 13.89° C | 71% | 1021.1 hPa | - | - | - | - |
* Rain since midnight (hover to see other rain measurements)
** Current wind speed in m/s (hover to see current wind gust speed)